sat.trackr.live / text

‹ back to catalog

STARLINK-32493

NORAD 62025 · 2024-213T

PAYLOAD ACTIVE UNKNOWN

§ Identity

Operator
Country
US
Launch date
2024-11-18
Launch site
AFWTR
Launch vehicle
Mass (kg)
RCS (m²)

Purposes: comms

External: N2YO · Heavens-Above · Gunter

§ Orbital elements

Epoch: 2026-05-24T13:34:19.889472Z

Period
93.85 min
Inclination
53.1588°
Eccentricity
0.0001045
Mean motion
15.34392774 rev/d
Perigee alt
462.0 km
Apogee alt
463.4 km
Semi-major
6,840.9 km
B*
1.2002e-4
RAAN
175.5573°
Arg perigee
83.9283°
Mean anomaly
276.1839°
Rev number
8,477

§ Raw data

STARLINK-324931 62025U 24213T   26144.56550798  .00003680  00000+0  12002-3 0  99932 62025  53.1588 175.5573 0001045  83.9283 276.1839 15.34392774 84770

JSON: /api/v1/satellites/62025 · /tle

For live sub-satellite position, see the globe view (requires WebGL).

§ Visibility from observer

Set your observer location to see the next 7 days of passes ≥ 10°. The values pass through the URL so the page stays shareable.

No JS? Fill the form by hand. The geolocation button needs JavaScript.